カタログに戻る

COSMOS 1677

運用中軍事LEO
NORAD 15986·PAYLOAD·🇷🇺 Russia

打ち上げ Aug 23, 1985 から Baikonur Cosmodrome

Loading…

次のパス (今後24時間)

TLE

最新Source: Space-Track

元期: Sep 14, 2026, 21:26 UTC

1 15986U 85075A   26257.89355406 -.00000093  00000-0 -71812-6 0  9995
2 15986  64.6821  69.9285 0070219 332.9011  26.8388 13.86703934 70326

AllMySatでCOSMOS 1677をリアルタイム追跡

Download on the App Store